Weather History for Cleveland, OH

Change the Weather History Date:

Saturday, March 9, 2013

  Actual Average Record
Temperature  
Mean Temperature 37 °F 36 °F  
Max Temperature 52 °F 44 °F 73 °F (1878)
Min Temperature 22 °F 28 °F -5 °F (1984)
Degree Days  
Heating Degree Days 28 29  
Month to date heating degree days 317 272  
Since 1 July heating degree days 4496 4489  
Cooling Degree Days 0 0  
Month to date cooling degree days 0 0  
Year to date cooling degree days 0 0  
Moisture  
Dew Point 28 °F    
Average Humidity 72    
Maximum Humidity 100    
Minimum Humidity 44    
Precipitation  
Precipitation T in 0.09 in 0.66 in (1964)
Month to date precipitation 0.21 0.77  
Year to date precipitation 4.68 5.83  
Snow  
Snow 0.00 in 0.50 in - ()
Month to date snowfall 3.1 4.3  
Since 1 July snowfall 43.8 56.5  
Snow Depth 0.00 in    
Sea Level Pressure  
Sea Level Pressure 30.32 in    
Wind  
Wind Speed 5 mph (SE)    
Max Wind Speed 16 mph    
Max Gust Speed 20 mph    
Visibility 9 miles    
Events      
T = Trace of Precipitation, MM = Missing Value Source: NWS Daily Summary

Daily Weather History Graph

Daily Weather History Graph

Search for Another Location

Airport:

Trip Planner

Search our weather history database for the weather conditions in past years. The results will help you decide how hot, cold, wet, or windy it might be!

Date:

Astronomy

Mar. 09, 2013 Rise Set
Actual Time 6:48 AM EST 6:27 PM EST
Civil Twilight 6:21 AM EST 6:55 PM EST
Nautical Twilight 5:49 AM EST 7:27 PM EST
Astronomical Twilight 5:16 AM EST 7:59 PM EST
Moon 5:13 AM EST (3/9) 4:27 PM EST (3/9)
Length of Visible Light 12h 34m
Length of Day
11h 38m
Waning Crescent, 5% of the Moon is Illuminated
Mar 9
Waning Crescent
Mar 11
New
Mar 19
First Quarter
Mar 27
Full
Apr 3
Last Quarter

Hourly Weather History & Observations

Time (EST) Temp. Windchill Dew Point Humidity Pressure Visibility Wind Dir Wind Speed Gust Speed Precip Events Conditions
12:51 AM 26.1 °F 20.5 °F 23.0 °F 88% 30.46 in 9.0 mi South 4.6 mph - N/A   Clear
1:51 AM 26.1 °F - 23.0 °F 88% 30.44 in 8.0 mi Calm Calm - N/A   Clear
2:51 AM 25.0 °F - 23.0 °F 92% 30.44 in 9.0 mi Calm Calm - N/A   Clear
3:51 AM 23.0 °F - 21.9 °F 96% 30.42 in 8.0 mi Calm Calm - N/A   Clear
4:51 AM 25.0 °F 20.7 °F 23.0 °F 92% 30.42 in 9.0 mi South 3.5 mph - N/A   Clear
5:51 AM 24.1 °F - 21.9 °F 91% 30.43 in 9.0 mi Calm Calm - N/A   Clear
6:51 AM 21.9 °F - 21.0 °F 96% 30.43 in 8.0 mi Calm Calm - N/A   Clear
7:51 AM 27.0 °F - 25.0 °F 92% 30.43 in 8.0 mi Calm Calm - N/A   Mostly Cloudy
8:51 AM 33.1 °F 27.7 °F 28.9 °F 85% 30.42 in 10.0 mi ESE 5.8 mph - N/A   Overcast
9:51 AM 37.9 °F 32.1 °F 28.9 °F 70% 30.41 in 10.0 mi SSE 8.1 mph - N/A   Mostly Cloudy
10:51 AM 39.9 °F 32.9 °F 28.9 °F 65% 30.39 in 10.0 mi SSE 11.5 mph - N/A   Mostly Cloudy
11:51 AM 42.1 °F 38.4 °F 28.9 °F 60% 30.37 in 10.0 mi SE 5.8 mph - N/A   Mostly Cloudy
12:51 PM 46.0 °F 42.5 °F 30.0 °F 54% 30.35 in 10.0 mi South 6.9 mph - N/A   Mostly Cloudy
1:51 PM 48.2 °F - 30.2 °F 50% 30.28 in 10.0 mi SSE 10.4 mph - N/A   Mostly Cloudy
2:51 PM 51.1 °F - 30.9 °F 46% 30.26 in 10.0 mi Variable 5.8 mph - N/A   Mostly Cloudy
3:51 PM 46.0 °F 41.9 °F 32.0 °F 58% 30.25 in 10.0 mi NNE 8.1 mph - N/A   Mostly Cloudy
4:51 PM 43.0 °F 39.5 °F 30.9 °F 62% 30.23 in 10.0 mi North 5.8 mph - N/A   Mostly Cloudy
5:51 PM 42.1 °F 38.4 °F 30.9 °F 65% 30.21 in 10.0 mi North 5.8 mph - N/A   Mostly Cloudy
6:51 PM 39.9 °F - 30.0 °F 68% 30.20 in 10.0 mi Calm Calm - N/A   Clear
7:51 PM 42.1 °F 40.2 °F 32.0 °F 67% 30.19 in 10.0 mi SE 3.5 mph - N/A   Mostly Cloudy
8:51 PM 45.0 °F 41.8 °F 30.0 °F 56% 30.17 in 10.0 mi SSE 5.8 mph - N/A   Mostly Cloudy
9:51 PM 46.9 °F - 30.9 °F 54% 30.17 in 10.0 mi South 6.9 mph - N/A   Overcast
10:51 PM 48.0 °F - 30.0 °F 50% 30.14 in 10.0 mi SSE 11.5 mph - 0.00 in   Overcast
11:51 PM 48.0 °F - 30.0 °F 50% 30.12 in 10.0 mi SSE 12.7 mph - N/A   Overcast